Location: Fernhill
(41.0167°S, 175.6333°E)
Time: 08:47:35
(UTC+00:00)

USA 281 - Pass Details

Date: 08 November 2025
Orbit: 1079 x 1080 km, 106.0° (Epoch: 08 December)

Event Time Altitude Azimuth Distance (km) Brightness Sun altitude
Rises 09:59:37 0° 161° (SSE) 3,913 6.7 -25.8°
Reaches altitude 10° 10:02:11 10° 164° (SSE) 2,952 6.0 -26.0°
Maximum altitude 10:08:40 57° 241° (WSW) 1,264 3.7 -26.7°
Enters shadow 10:14:23 13° 316° (NW) 2,678 5.1 -27.2°
